TimePST,TemperatureF,Dew PointF,Humidity,Sea Level PressureIn,VisibilityMPH,Wind Direction,Wind SpeedMPH,Gust SpeedMPH,PrecipitationIn,Events,Conditions,WindDirDegrees,DateUTC
12:00 AM,43.3,25.0,48,29.90,-9999.0,North,4.6,-,N/A,,Unknown,350,2012-11-09 08:00:00
2:00 AM,43.3,24.1,47,29.90,-9999.0,WNW,10.4,20.7,N/A,,Unknown,290,2012-11-09 10:00:00
3:00 AM,42.6,24.3,48,29.90,-9999.0,WNW,4.6,-,N/A,,Unknown,300,2012-11-09 11:00:00
4:00 AM,42,23,34,29.89,,WNW,9.2,,,,,290,2012-11-09 12:00:00
5:00 AM,42.1,22.3,45,29.90,-9999.0,WNW,10.4,23.0,N/A,,Unknown,300,2012-11-09 13:00:00
6:00 AM,42.1,21.6,44,29.91,-9999.0,NW,12.7,23.0,N/A,,Unknown,320,2012-11-09 14:00:00
7:00 AM,41.7,20.5,43,29.92,-9999.0,WNW,11.5,24.2,N/A,,Unknown,300,2012-11-09 15:00:00
8:00 AM,41.7,19.9,42,29.94,-9999.0,NW,9.2,19.6,N/A,,Unknown,310,2012-11-09 16:00:00
9:00 AM,41.9,19.8,41,29.94,-9999.0,WNW,10.4,19.6,N/A,,Unknown,300,2012-11-09 17:00:00
10:00 AM,43,21,28,29.95,,NW,8.1,,,,,320,2012-11-09 18:00:00
10:00 AM,43.0,21.0,42,29.95,-9999.0,NW,8.1,19.6,N/A,,Unknown,320,2012-11-09 18:00:00
11:00 AM,43.7,19.9,39,29.95,-9999.0,NW,11.5,21.9,N/A,,Unknown,310,2012-11-09 19:00:00
12:00 PM,44.2,18.7,36,29.94,-9999.0,WNW,11.5,20.7,N/A,,Unknown,300,2012-11-09 20:00:00
1:00 PM,45.0,19.8,37,29.93,-9999.0,WNW,9.2,20.7,N/A,,Unknown,300,2012-11-09 21:00:00
2:00 PM,44.2,19.4,37,29.93,-9999.0,WNW,9.2,17.3,N/A,,Unknown,290,2012-11-09 22:00:00
3:00 PM,43.9,18.9,37,29.94,-9999.0,WNW,9.2,25.3,N/A,,Unknown,290,2012-11-09 23:00:00
4:00 PM,43,19,25,29.94,,NNW,6.9,,,,,330,2012-11-10 00:00:00
4:00 PM,42.8,18.9,38,29.94,-9999.0,NNW,6.9,19.6,N/A,,Unknown,330,2012-11-10 00:00:00
5:00 PM,41.5,19.6,41,29.95,-9999.0,West,5.8,-,N/A,,Unknown,280,2012-11-10 01:00:00
6:00 PM,41.4,18.5,40,29.97,-9999.0,NNW,6.9,-,N/A,,Unknown,330,2012-11-10 02:00:00
7:00 PM,40.1,19.6,44,29.97,-9999.0,West,3.5,-,N/A,,Unknown,260,2012-11-10 03:00:00
8:00 PM,39.7,18.1,42,29.99,-9999.0,NW,3.5,-,N/A,,Unknown,310,2012-11-10 04:00:00
9:00 PM,39.7,17.1,40,30.00,-9999.0,NW,3.5,-,N/A,,Unknown,310,2012-11-10 05:00:00
10:00 PM,39,17,27,30.01,,West,4.6,,,,,260,2012-11-10 06:00:00
10:00 PM,39.4,16.9,40,30.01,-9999.0,West,4.6,-,N/A,,Unknown,260,2012-11-10 06:00:00
11:00 PM,38.8,15.8,39,30.02,-9999.0,NNW,6.9,19.6,N/A,,Unknown,340,2012-11-10 07:00:00